Other Surface Observations
Issued by NWS

Current Version | Previous Version | Text Only | Print | Product List | Glossary On
Versions: 1 2 3 4 5 6 7 8 9 10 11 12 13 14 15 16 17 18 19 20 21 22 23 24 25 26 27 28 29 30 31 32 33 34 35 36 37 38 39 40 41 42 43 44 45 46 47 48 49 50
000
SXUS52 KTAE 221718
OSOTAE
OSOTAE
North Florida/South Alabama/Southwest Georgia Weather Roundup
National Weather Service Tallahassee Florida
100 PM EDT TUE JUL 22 2014

Note: "fair" indicates few or no clouds below 12,000 feet with no
significant weather and/or obstructions to visibility.

!FLZ017-115-028-034-025-221800
...North Florida...

CITY           SKY/WX    TMP DP  RH WIND       PRES   REMARKS
TALLAHASSEE    PTSUNNY   87  67  51 CALM      30.07S HX  90
APALACHICOLA   MOSUNNY   86  74  67 S8        30.07S HX  94
PERRY          PTSUNNY   84  68  58 CALM      30.08R
CROSS CITY       N/A     88  74  63 E5        30.06F HX  96
HOMERVILLE     FAIR      88  73  62 CALM      30.09F HX  96
JACKSONVILLE   PTSUNNY   88  71  57 VRB7      30.07F HX  94
$$

!FLZ112-006-005-002-011-221800
...Florida Panhandle...

CITY           SKY/WX    TMP DP  RH WIND       PRES   REMARKS
MARIANNA       MOSUNNY   85  70  60 CALM      30.06F
BONIFAY          N/A     86  73  65 VRB5      30.07F HX  93
PANAMA CITY NW FAIR      85  72  65 S14       30.06S HX  91
TYNDALL AFB    MOSUNNY   84  74  72 S10       30.08S HX  92
TYND DRONE APT FAIR      85  73  68 S9G15     30.05F HX  92
DE FUNIAK SPR  PTSUNNY   80  74  83 SE7       30.08S
EGLIN AFB      PTSUNNY   84  75  73 VRB7      30.06F HX  92
DESTIN         MOSUNNY   86  76  71 VRB5      30.06S HX  96
HURLBURT       PTSUNNY   84  73  70 SE9       30.05S HX  91
CRESTVIEW      LGT RAIN  74  72  93 S5        30.08F FOG
PENSACOLA      PTSUNNY   84  73  69 SE9       30.05S HX  90
$$

!ALZ063-066-221800
...South Alabama...

CITY           SKY/WX    TMP DP  RH WIND       PRES   REMARKS
DOTHAN         CLOUDY    82  72  69 N8        30.12F
OZARK CAIRNS   PTSUNNY   84  72  65 VRB2      30.07F
FT RUCKER HELI SUNNY     86  71  60 NE9       30.06F HX  91
RUCKER HELI 3  PTSUNNY   85  72  64 E8        30.10F HX  90
RUCKER HELI 2  FAIR      83  71  67 CALM      30.07F
FLORALA APT    MOSUNNY   86  73  66 E7        30.09S THUNDER HX  93
ANDALUSIA      PTSUNNY   90  72  55 E6        30.06F THUNDER HX  96
TROY           MOSUNNY   84  71  65 E9        30.09F
EUFALA         CLOUDY    77  72  84 CALM      30.09F
MOBILE         PTSUNNY   88  74  63 N7        30.04F HX  96
$$

!GAZ120>161-221800
...Southwest and South Central Georgia...

CITY           SKY/WX    TMP DP  RH WIND       PRES   REMARKS
THOMASVILLE    FAIR      86  70  58 CALM      30.09F HX  90
BAINBRIDGE     SUNNY     88  73  62 CALM      30.08S HX  96
MOODY AFB      LGT RAIN  77  76  95 E6        30.09S
VALDOSTA       CLOUDY    86  72  62 NE5       30.08F HX  92
MOULTRIE       PTSUNNY   82  72  69 CALM      30.09F
BLAKELY        CLOUDY    81  73  78 E5        30.09F
ALBANY         PTSUNNY   84  70  61 CALM      30.10F
TIFTON         PTSUNNY   80  70  72 SE5       30.10S
FITZGERALD     LGT RAIN  75  73  91 E3        30.13F
CORDELE        CLOUDY    82  70  66 CALM      30.10F
AMERICUS       CLOUDY    79  70  73 CALM      30.11F
$$

!GMZ750-755-770-775-221800
...Coastal and Buoy Obs...

STATION/POSITION TIME  TEMP    WIND        PRES    VSBY  WAVE
                       AIR SEA DIR/SP/G                  HT/PER
                 (UTC) (F)     (DEG/KT/KT) (MB)    (MI)  (FT/S)
KEATON BEACH     1700   81     220/  5/  6 1018.6R
CEDAR KEY        1700   81     170/  4/  5 1018.9R
C TOWER          1700   83        CALM     1018.2R
APALACHICOLA BUO 1700   83 87  250/  2/  6 1018.2R         1/ 8
PANAMA CITY BUOY 1602   83 84  210/  6/  8 1018.1R         1/ 4
MOBILE BUOY      1620   83 86   80/  4/  4 1018.1R
ORANGE BCH AL BU 1700   82 83  170/ 10/ 10 1017.5R         1/ 4
$$



USA.gov is the U.S. government's official web portal to all federal, state and local government web resources and services.